Grafton, ND

1:10 AM CST on January 20, 2017 (GMT -0600)
Grafton Municipal

Weather History for KGAF - January, 2013

Change the Weather History Date:

Tuesday, January 15, 2013

  Actual Average Record
Temperature  
Mean Temperature 18 °F -  
Max Temperature 35 °F 12 °F 41 °F (1973)
Min Temperature 0 °F -4 °F -33 °F (1971)
Degree Days  
Heating Degree Days 48    
Moisture  
Dew Point 7 °F    
Average Humidity 85    
Maximum Humidity 93    
Minimum Humidity 73    
Precipitation  
Precipitation 0.00 in - - ()
Sea Level Pressure  
Sea Level Pressure 29.84 in    
Wind  
Wind Speed 11 mph (South)    
Max Wind Speed 21 mph    
Max Gust Speed 25 mph    
Visibility 9 miles    
Events Rain , Snow    
Averages and records for this station are not official NWS values.
T = Trace of Precipitation, MM = Missing Value Source: NWS Daily Summary

Daily Weather History Graph

Daily Weather History Graph

Search for Another Location

Airport or City:

Trip Planner

Search our weather history database for the weather conditions in past years. The results will help you decide how hot, cold, wet, or windy it might be!

Date:

Astronomy

Jan. 15, 2013 Rise Set
Actual Time 8:15 AM CST 5:02 PM CST
Civil Twilight 7:40 AM CST 5:38 PM CST
Nautical Twilight 7:01 AM CST 6:17 PM CST
Astronomical Twilight 6:23 AM CST 6:54 PM CST
Moon 9:57 AM CST (1/15) 10:21 PM CST (1/15)
Length of Visible Light 9h 57m
Length of Day
8h 47m
Waxing Crescent, 19% of the Moon is Illuminated
Jan 15
Waxing Crescent
Jan 18
First Quarter
Jan 26
Full
Feb 3
Last Quarter
Feb 10
New

Hourly Weather History & Observations

Time (CST) Temp. Windchill Dew Point Humidity Pressure Visibility Wind Dir Wind Speed Gust Speed Precip Events Conditions
12:15 AM 1.4 °F -11.3 °F -0.4 °F 92% 30.13 in 10.0 mi SSW 6.9 mph - N/A   Overcast
12:35 AM 1.4 °F -8.3 °F -0.4 °F 92% 30.12 in 10.0 mi South 4.6 mph - N/A   Overcast
12:55 AM 1.4 °F -11.3 °F -0.4 °F 92% 30.11 in 10.0 mi South 6.9 mph - N/A   Overcast
1:15 AM 1.4 °F -12.5 °F -0.4 °F 92% 30.11 in 10.0 mi South 8.1 mph - N/A   Overcast
1:35 AM 1.4 °F -11.3 °F -0.4 °F 92% 30.10 in 10.0 mi South 6.9 mph - N/A   Overcast
1:55 AM 1.4 °F -13.5 °F -2.2 °F 85% 30.10 in 10.0 mi South 9.2 mph - N/A   Overcast
2:15 AM 1.4 °F -12.5 °F -2.2 °F 85% 30.09 in 10.0 mi South 8.1 mph - N/A   Overcast
2:35 AM 1.4 °F -14.5 °F -2.2 °F 85% 30.09 in 10.0 mi South 10.4 mph - N/A   Overcast
2:55 AM 1.4 °F -14.5 °F -2.2 °F 85% 30.08 in 10.0 mi South 10.4 mph - N/A   Overcast
3:15 AM 1.4 °F -15.3 °F -0.4 °F 92% 30.07 in 10.0 mi South 11.5 mph - N/A   Overcast
3:35 AM 1.4 °F -15.3 °F -0.4 °F 92% 30.06 in 10.0 mi South 11.5 mph - N/A   Overcast
3:55 AM 1.4 °F -16.1 °F -0.4 °F 92% 30.05 in 10.0 mi South 12.7 mph - N/A   Overcast
4:15 AM 1.4 °F -17.6 °F -0.4 °F 92% 30.04 in 10.0 mi South 15.0 mph - N/A   Overcast
4:55 AM 3.2 °F -14.6 °F -0.4 °F 85% 30.01 in 10.0 mi SSE 13.8 mph - N/A   Overcast
5:15 AM 3.2 °F -11.3 °F -0.4 °F 85% 30.01 in 10.0 mi SSE 9.2 mph - N/A   Overcast
5:35 AM 3.2 °F -11.3 °F -0.4 °F 85% 30.00 in 10.0 mi SSE 9.2 mph - N/A   Overcast
5:55 AM 1.4 °F -12.5 °F -2.2 °F 85% 30.00 in 10.0 mi South 8.1 mph - N/A   Scattered Clouds
6:15 AM 1.4 °F -12.5 °F -2.2 °F 85% 30.00 in 10.0 mi South 8.1 mph - N/A   Partly Cloudy
6:35 AM -0.4 °F -15.7 °F -4.0 °F 85% 29.98 in 9.0 mi South 9.2 mph - N/A   Partly Cloudy
6:55 AM -0.4 °F -14.7 °F -4.0 °F 85% 29.98 in 10.0 mi SSE 8.1 mph - N/A   Clear
7:15 AM -0.4 °F -14.7 °F -4.0 °F 85% 29.97 in 10.0 mi SSE 8.1 mph - N/A   Clear
7:35 AM -0.4 °F -16.7 °F -4.0 °F 85% 29.97 in 10.0 mi South 10.4 mph - N/A   Clear
7:55 AM -0.4 °F -15.7 °F -4.0 °F 85% 29.97 in 10.0 mi South 9.2 mph - N/A   Clear
8:15 AM -0.4 °F -15.7 °F -4.0 °F 85% 29.98 in 10.0 mi South 9.2 mph - N/A   Clear
8:35 AM -0.4 °F -15.7 °F -4.0 °F 85% 29.98 in 10.0 mi South 9.2 mph - N/A   Clear
8:55 AM -0.4 °F -13.4 °F -4.0 °F 85% 29.98 in 8.0 mi South 6.9 mph - N/A   Clear
9:15 AM -0.4 °F -15.7 °F -2.2 °F 92% 29.97 in 9.0 mi South 9.2 mph - N/A   Clear
9:35 AM 1.4 °F -15.3 °F -0.4 °F 92% 29.96 in 10.0 mi South 11.5 mph - N/A   Clear
9:55 AM 3.2 °F -13.1 °F -0.4 °F 85% 29.96 in 10.0 mi South 11.5 mph - N/A   Clear
10:15 AM 5.0 °F -11.6 °F -0.4 °F 78% 29.95 in 10.0 mi South 12.7 mph - N/A   Clear
10:35 AM 6.8 °F -8.6 °F 1.4 °F 79% 29.94 in 10.0 mi South 11.5 mph - N/A   Clear
10:55 AM 6.8 °F -10.0 °F 1.4 °F 79% 29.93 in 10.0 mi South 13.8 mph - N/A   Clear
11:15 AM 8.6 °F -7.7 °F 3.2 °F 79% 29.92 in 10.0 mi South 13.8 mph - N/A   Clear
11:35 AM 8.6 °F -7.0 °F 5.0 °F 85% 29.91 in 10.0 mi South 12.7 mph - N/A   Clear
11:55 AM 10.4 °F -4.1 °F 5.0 °F 79% 29.90 in 10.0 mi South 11.5 mph - N/A   Clear
12:15 PM 12.2 °F -1.8 °F 6.8 °F 79% 29.88 in 10.0 mi SSW 11.5 mph - N/A   Clear
12:35 PM 12.2 °F -2.5 °F 6.8 °F 79% 29.87 in 10.0 mi SSW 12.7 mph - N/A   Clear
12:55 PM 14.0 °F -0.2 °F 6.8 °F 73% 29.85 in 10.0 mi SSW 12.7 mph - N/A   Clear
1:15 PM 14.0 °F 0.5 °F 8.6 °F 79% 29.84 in 10.0 mi SSW 11.5 mph - N/A   Clear
1:35 PM 15.8 °F 2.7 °F 8.6 °F 73% 29.83 in 10.0 mi SSW 11.5 mph - N/A   Clear
1:55 PM 15.8 °F 1.4 °F 8.6 °F 73% 29.82 in 10.0 mi SSW 13.8 mph - N/A   Clear
2:15 PM 15.8 °F 1.4 °F 8.6 °F 73% 29.80 in 10.0 mi SSW 13.8 mph 19.6 mph N/A   Clear
2:35 PM 17.6 °F 2.7 °F 10.4 °F 73% 29.79 in 10.0 mi SSW 16.1 mph - N/A   Clear
2:55 PM 17.6 °F 3.7 °F 10.4 °F 73% 29.79 in 10.0 mi South 13.8 mph - N/A   Clear
3:15 PM 17.6 °F 3.7 °F 10.4 °F 73% 29.78 in 10.0 mi South 13.8 mph - N/A   Clear
3:35 PM 17.6 °F 3.7 °F 10.4 °F 73% 29.79 in 10.0 mi SSW 13.8 mph - N/A   Clear
3:55 PM 17.6 °F 4.3 °F 12.2 °F 79% 29.77 in 10.0 mi South 12.7 mph - N/A   Clear
4:15 PM 17.6 °F 3.2 °F 12.2 °F 79% 29.74 in 10.0 mi South 15.0 mph - N/A   Clear
4:35 PM 17.6 °F 2.7 °F 12.2 °F 79% 29.74 in 10.0 mi South 16.1 mph - N/A   Clear
4:55 PM 17.6 °F 2.7 °F 14.0 °F 86% 29.72 in 10.0 mi South 16.1 mph - N/A   Mostly Cloudy
5:15 PM 19.4 °F 4.5 °F 14.0 °F 80% 29.69 in 10.0 mi South 17.3 mph - N/A   Mostly Cloudy
5:35 PM 19.4 °F 4.1 °F 14.0 °F 80% 29.66 in 10.0 mi South 18.4 mph - N/A   Overcast
5:55 PM 19.4 °F 4.5 °F 14.0 °F 80% 29.65 in 10.0 mi South 17.3 mph 24.2 mph N/A   Overcast
6:15 PM 19.4 °F 4.5 °F 15.8 °F 86% 29.64 in 10.0 mi South 17.3 mph 21.9 mph N/A   Overcast
6:35 PM 19.4 °F 5.5 °F 15.8 °F 86% 29.63 in 10.0 mi South 15.0 mph - N/A   Overcast
6:55 PM 19.4 °F 5.0 °F 15.8 °F 86% 29.61 in 4.0 mi South 16.1 mph 20.7 mph N/A Snow Light Snow
7:15 PM 21.2 °F 6.4 °F 17.6 °F 86% 29.60 in 2.0 mi South 18.4 mph 23.0 mph N/A Snow Light Snow
7:35 PM 21.2 °F 6.8 °F 17.6 °F 86% 29.58 in 2.5 mi South 17.3 mph 23.0 mph N/A   Overcast
7:55 PM 21.2 °F 5.6 °F 19.4 °F 93% 29.56 in 1.8 mi South 20.7 mph 25.3 mph N/A   Overcast
8:15 PM 21.2 °F 6.8 °F 19.4 °F 93% 29.54 in 3.0 mi South 17.3 mph 24.2 mph N/A   Mostly Cloudy
8:35 PM 21.2 °F 6.4 °F 19.4 °F 93% 29.51 in 4.0 mi South 18.4 mph - N/A   Overcast
8:55 PM 23.0 °F 9.2 °F 19.4 °F 86% 29.50 in 5.0 mi South 17.3 mph 21.9 mph N/A   Overcast
9:15 PM 23.0 °F 11.1 °F 21.2 °F 93% 29.49 in 4.0 mi SSW 12.7 mph - N/A Rain Light Freezing Rain
9:35 PM 24.8 °F 12.9 °F 23.0 °F 93% 29.48 in 7.0 mi SSW 13.8 mph - N/A   Overcast
9:55 PM 24.8 °F 15.3 °F 23.0 °F 93% 29.47 in 10.0 mi South 9.2 mph - N/A   Overcast
10:15 PM 28.4 °F 19.1 °F 26.6 °F 93% 29.46 in 4.0 mi SW 10.4 mph 16.1 mph N/A Snow Light Snow
10:55 PM 32.0 °F 23.0 °F 30.2 °F 93% 29.46 in 10.0 mi West 11.5 mph - N/A   Overcast
11:15 PM 35.6 °F 26.2 °F 32.0 °F 87% 29.46 in 10.0 mi WNW 15.0 mph - N/A   Overcast
11:35 PM 35.6 °F 26.2 °F 32.0 °F 87% 29.46 in 10.0 mi NW 15.0 mph 24.2 mph N/A   Overcast